Time,TemperatureF,DewpointF,PressureIn,WindDirection,WindDirectionDegrees,WindSpeedMPH,WindSpeedGustMPH,Humidity,HourlyPrecipIn,Conditions,Clouds,dailyrainin,SolarRadiationWatts/m^2,SoftwareType,DateUTC
2013-01-14 00:13:00,39.5,39.0,29.91,SE,145,0.0,2.0,97,0.00,,,0.00,0,weatherlink.com 1.10,2013-01-14 05:13:00,
2013-01-14 00:28:00,39.6,39.0,29.90,SE,145,0.0,2.0,97,0.00,,,0.00,0,weatherlink.com 1.10,2013-01-14 05:28:00,
2013-01-14 00:43:00,40.1,40.0,29.90,South,173,7.0,9.0,98,0.00,,,0.00,0,weatherlink.com 1.10,2013-01-14 05:43:00,
2013-01-14 00:58:00,39.7,39.0,29.90,SSW,200,5.0,7.0,97,0.00,,,0.00,0,weatherlink.com 1.10,2013-01-14 05:58:00,
2013-01-14 01:13:00,39.9,39.0,29.90,SSW,201,5.0,9.0,98,0.00,,,0.00,0,weatherlink.com 1.10,2013-01-14 06:13:00,
2013-01-14 01:28:00,39.7,39.0,29.90,SSW,202,0.0,7.0,98,0.00,,,0.00,0,weatherlink.com 1.10,2013-01-14 06:28:00,
2013-01-14 01:43:00,39.3,39.0,29.90,SSW,195,0.0,4.0,98,0.00,,,0.00,0,weatherlink.com 1.10,2013-01-14 06:43:00,
2013-01-14 01:58:00,38.4,38.0,29.90,SSW,195,0.0,4.0,98,0.00,,,0.00,0,weatherlink.com 1.10,2013-01-14 06:58:00,
2013-01-14 02:13:00,38.7,38.0,29.89,SSW,196,0.0,4.0,98,0.00,,,0.00,0,weatherlink.com 1.10,2013-01-14 07:13:00,
2013-01-14 02:28:00,38.7,38.0,29.90,SSW,196,0.0,2.0,98,0.00,,,0.00,0,weatherlink.com 1.10,2013-01-14 07:28:00,
2013-01-14 02:43:00,38.6,38.0,29.90,SSE,160,1.0,5.0,98,0.00,,,0.00,0,weatherlink.com 1.10,2013-01-14 07:43:00,
2013-01-14 02:59:00,38.5,38.0,29.90,SSW,199,0.0,7.0,98,0.00,,,0.00,0,weatherlink.com 1.10,2013-01-14 07:59:00,
2013-01-14 03:13:00,38.4,38.0,29.89,ENE,78,0.0,6.0,98,0.00,,,0.00,0,weatherlink.com 1.10,2013-01-14 08:13:00,
2013-01-14 03:28:00,38.6,38.0,29.89,SSW,199,2.0,11.0,98,0.00,,,0.00,0,weatherlink.com 1.10,2013-01-14 08:28:00,
2013-01-14 03:43:00,43.9,43.0,29.88,South,172,11.0,11.0,98,0.02,,,0.02,0,weatherlink.com 1.10,2013-01-14 08:43:00,
2013-01-14 03:58:00,47.2,47.0,29.89,SSW,195,4.0,9.0,98,0.03,,,0.03,0,weatherlink.com 1.10,2013-01-14 08:58:00,
2013-01-14 04:13:00,47.8,47.0,29.86,South,187,3.0,12.0,98,0.04,,,0.04,0,weatherlink.com 1.10,2013-01-14 09:13:00,
2013-01-14 04:28:00,42.5,42.0,29.84,SSW,194,0.0,10.0,98,0.05,,,0.05,0,weatherlink.com 1.10,2013-01-14 09:28:00,
2013-01-14 04:43:00,42.7,42.0,29.83,SSE,150,0.0,12.0,98,0.04,,,0.06,0,weatherlink.com 1.10,2013-01-14 09:43:00,
2013-01-14 04:58:00,43.4,43.0,29.83,South,190,4.0,8.0,98,0.03,,,0.06,0,weatherlink.com 1.10,2013-01-14 09:58:00,
2013-01-14 05:13:00,45.8,45.0,29.80,SSW,213,7.0,24.0,98,0.03,,,0.07,0,weatherlink.com 1.10,2013-01-14 10:13:00,
2013-01-14 05:28:00,46.6,46.0,29.81,SW,231,7.0,20.0,98,0.02,,,0.07,0,weatherlink.com 1.10,2013-01-14 10:28:00,
2013-01-14 05:43:00,48.3,48.0,29.83,South,169,2.0,10.0,98,0.01,,,0.07,0,weatherlink.com 1.10,2013-01-14 10:43:00,
2013-01-14 05:58:00,51.8,51.0,29.83,South,190,0.0,16.0,95,0.01,,,0.07,0,weatherlink.com 1.10,2013-01-14 10:58:00,
2013-01-14 06:13:00,51.7,49.0,29.83,SSE,156,1.0,14.0,91,0.00,,,0.07,0,weatherlink.com 1.10,2013-01-14 11:13:00,
2013-01-14 06:28:00,51.3,49.0,29.84,South,186,1.0,16.0,90,0.00,,,0.07,0,weatherlink.com 1.10,2013-01-14 11:28:00,
2013-01-14 06:43:00,51.6,49.0,29.85,SSW,199,12.0,27.0,91,0.00,,,0.07,0,weatherlink.com 1.10,2013-01-14 11:43:00,
2013-01-14 06:58:00,51.0,48.0,29.85,ESE,112,3.0,22.0,90,0.00,,,0.07,0,weatherlink.com 1.10,2013-01-14 11:58:00,
2013-01-14 07:13:00,51.7,49.0,29.87,NNW,333,1.0,23.0,91,0.00,,,0.07,0,weatherlink.com 1.10,2013-01-14 12:13:00,
2013-01-14 07:28:00,50.5,48.0,29.87,NW,309,12.0,18.0,92,0.00,,,0.07,0,weatherlink.com 1.10,2013-01-14 12:28:00,
2013-01-14 07:44:00,49.2,47.0,29.89,West,261,4.0,20.0,93,0.00,,,0.07,0,weatherlink.com 1.10,2013-01-14 12:44:00,
2013-01-14 07:59:00,46.6,45.0,29.91,WNW,303,4.0,16.0,93,0.00,,,0.07,0,weatherlink.com 1.10,2013-01-14 12:59:00,
2013-01-14 08:14:00,45.0,43.0,29.91,WNW,298,2.0,18.0,93,0.00,,,0.07,7,weatherlink.com 1.10,2013-01-14 13:14:00,
2013-01-14 08:29:00,44.4,43.0,29.93,NW,325,0.0,10.0,95,0.00,,,0.07,11,weatherlink.com 1.10,2013-01-14 13:29:00,
2013-01-14 08:44:00,44.4,43.0,29.94,WNW,284,4.0,13.0,94,0.00,,,0.07,18,weatherlink.com 1.10,2013-01-14 13:44:00,
2013-01-14 09:01:00,44.9,43.0,29.94,WNW,294,7.0,14.0,93,0.00,,,0.07,32,weatherlink.com 1.10,2013-01-14 14:01:00,
2013-01-14 09:14:00,45.3,43.0,29.94,NW,308,4.0,12.0,90,0.00,,,0.07,26,weatherlink.com 1.10,2013-01-14 14:14:00,
2013-01-14 09:31:00,45.2,42.0,29.94,WSW,255,4.0,9.0,87,0.00,,,0.07,431,weatherlink.com 1.10,2013-01-14 14:31:00,
2013-01-14 09:46:00,46.4,41.0,29.94,NW,310,3.0,11.0,82,0.00,,,0.07,431,weatherlink.com 1.10,2013-01-14 14:46:00,
2013-01-14 10:01:00,44.6,40.0,29.95,North,355,2.0,12.0,85,0.00,,,0.07,396,weatherlink.com 1.10,2013-01-14 15:01:00,
2013-01-14 10:16:00,43.4,39.0,29.94,NW,305,4.0,10.0,84,0.00,,,0.07,420,weatherlink.com 1.10,2013-01-14 15:16:00,
2013-01-14 10:31:00,42.8,39.0,29.95,NW,307,2.0,15.0,85,0.00,,,0.07,163,weatherlink.com 1.10,2013-01-14 15:31:00,
2013-01-14 10:46:00,41.9,38.0,29.95,WNW,300,2.0,13.0,85,0.00,,,0.07,577,weatherlink.com 1.10,2013-01-14 15:46:00,
2013-01-14 11:01:00,40.2,36.0,29.95,WNW,299,5.0,14.0,86,0.00,,,0.07,336,weatherlink.com 1.10,2013-01-14 16:01:00,
2013-01-14 11:16:00,38.7,36.0,29.95,NE,55,4.0,16.0,89,0.00,,,0.07,225,weatherlink.com 1.10,2013-01-14 16:16:00,
2013-01-14 11:31:00,38.1,35.0,29.95,NW,306,4.0,19.0,89,0.00,,,0.07,710,weatherlink.com 1.10,2013-01-14 16:31:00,
2013-01-14 11:47:00,39.1,35.0,29.95,North,5,5.0,22.0,86,0.00,,,0.07,555,weatherlink.com 1.10,2013-01-14 16:47:00,
2013-01-14 12:01:00,39.0,35.0,29.95,NW,311,5.0,27.0,84,0.00,,,0.07,568,weatherlink.com 1.10,2013-01-14 17:01:00,
2013-01-14 12:17:00,39.1,34.0,29.97,NW,319,3.0,20.0,83,0.00,,,0.07,427,weatherlink.com 1.10,2013-01-14 17:17:00,
2013-01-14 12:32:00,38.4,34.0,29.97,NW,312,1.0,18.0,83,0.00,,,0.07,534,weatherlink.com 1.10,2013-01-14 17:32:00,
2013-01-14 12:47:00,38.0,33.0,29.97,NW,304,6.0,12.0,83,0.00,,,0.07,374,weatherlink.com 1.10,2013-01-14 17:47:00,
2013-01-14 13:18:00,38.3,33.0,29.99,SW,224,5.0,20.0,82,0.00,,,0.07,510,weatherlink.com 1.10,2013-01-14 18:18:00,
2013-01-14 13:33:00,38.0,32.0,30.00,WNW,284,5.0,21.0,80,0.00,,,0.07,485,weatherlink.com 1.10,2013-01-14 18:33:00,
2013-01-14 13:48:00,38.0,32.0,30.00,WNW,293,9.0,16.0,80,0.00,,,0.07,466,weatherlink.com 1.10,2013-01-14 18:48:00,
2013-01-14 14:03:00,38.3,32.0,30.01,NW,315,6.0,15.0,77,0.00,,,0.07,427,weatherlink.com 1.10,2013-01-14 19:03:00,
2013-01-14 14:18:00,38.1,31.0,30.03,WNW,303,10.0,15.0,76,0.00,,,0.07,399,weatherlink.com 1.10,2013-01-14 19:18:00,
2013-01-14 14:33:00,37.8,31.0,30.03,WNW,298,2.0,14.0,76,0.00,,,0.07,348,weatherlink.com 1.10,2013-01-14 19:33:00,
2013-01-14 14:49:00,37.5,30.0,30.04,WNW,288,10.0,15.0,75,0.00,,,0.07,234,weatherlink.com 1.10,2013-01-14 19:49:00,
2013-01-14 15:03:00,36.7,29.0,30.05,North,5,4.0,13.0,75,0.00,,,0.07,69,weatherlink.com 1.10,2013-01-14 20:03:00,
2013-01-14 15:19:00,36.5,28.0,30.06,NNW,336,3.0,14.0,72,0.00,,,0.07,40,weatherlink.com 1.10,2013-01-14 20:19:00,
2013-01-14 15:34:00,36.1,27.0,30.07,NW,319,0.0,9.0,70,0.00,,,0.07,30,weatherlink.com 1.10,2013-01-14 20:34:00,
2013-01-14 15:49:00,35.5,27.0,30.07,NNW,340,3.0,12.0,70,0.00,,,0.07,39,weatherlink.com 1.10,2013-01-14 20:49:00,
2013-01-14 16:04:00,35.0,26.0,30.07,WNW,296,6.0,12.0,71,0.00,,,0.07,21,weatherlink.com 1.10,2013-01-14 21:04:00,
2013-01-14 16:19:00,34.4,26.0,30.08,NNW,332,2.0,13.0,72,0.00,,,0.07,18,weatherlink.com 1.10,2013-01-14 21:19:00,
2013-01-14 16:34:00,34.2,26.0,30.09,SSE,151,4.0,11.0,73,0.00,,,0.07,7,weatherlink.com 1.10,2013-01-14 21:34:00,
2013-01-14 16:51:00,33.4,26.0,30.09,NNW,340,5.0,9.0,74,0.00,,,0.07,0,weatherlink.com 1.10,2013-01-14 21:51:00,
2013-01-14 17:05:00,32.8,25.0,30.08,South,182,0.0,2.0,74,0.00,,,0.07,0,weatherlink.com 1.10,2013-01-14 22:05:00,
2013-01-14 17:21:00,31.9,25.0,30.08,West,281,0.0,8.0,76,0.00,,,0.07,0,weatherlink.com 1.10,2013-01-14 22:21:00,
2013-01-14 17:35:00,31.3,25.0,30.07,NNW,329,0.0,9.0,77,0.00,,,0.07,0,weatherlink.com 1.10,2013-01-14 22:35:00,
2013-01-14 17:51:00,31.0,25.0,30.08,NNW,344,1.0,7.0,77,0.00,,,0.07,0,weatherlink.com 1.10,2013-01-14 22:51:00,
2013-01-14 18:06:00,30.5,24.0,30.08,East,79,2.0,13.0,78,0.00,,,0.07,0,weatherlink.com 1.10,2013-01-14 23:06:00,
2013-01-14 18:21:00,30.1,24.0,30.09,SE,140,4.0,8.0,79,0.00,,,0.07,0,weatherlink.com 1.10,2013-01-14 23:21:00,
2013-01-14 18:36:00,29.9,24.0,30.11,SSE,161,2.0,7.0,80,0.00,,,0.07,0,weatherlink.com 1.10,2013-01-14 23:36:00,
2013-01-14 18:51:00,29.8,24.0,30.13,South,169,5.0,8.0,80,0.00,,,0.07,0,weatherlink.com 1.10,2013-01-14 23:51:00,
2013-01-14 19:06:00,29.8,23.0,30.14,NNW,333,6.0,22.0,77,0.00,,,0.07,0,weatherlink.com 1.10,2013-01-15 00:06:00,
2013-01-14 19:21:00,29.6,24.0,30.13,NE,50,2.0,6.0,78,0.00,,,0.07,0,weatherlink.com 1.10,2013-01-15 00:21:00,
2013-01-14 19:37:00,29.0,23.0,30.15,East,89,1.0,8.0,79,0.00,,,0.07,0,weatherlink.com 1.10,2013-01-15 00:37:00,
2013-01-14 19:52:00,28.8,23.0,30.15,ENE,64,5.0,9.0,79,0.00,,,0.07,0,weatherlink.com 1.10,2013-01-15 00:52:00,
2013-01-14 20:07:00,28.4,22.0,30.15,NW,324,8.0,9.0,78,0.00,,,0.07,0,weatherlink.com 1.10,2013-01-15 01:07:00,
2013-01-14 20:23:00,27.9,22.0,30.15,North,9,3.0,7.0,79,0.00,,,0.07,0,weatherlink.com 1.10,2013-01-15 01:23:00,
2013-01-14 20:38:00,27.7,22.0,30.16,NNE,26,0.0,5.0,79,0.00,,,0.07,0,weatherlink.com 1.10,2013-01-15 01:38:00,
2013-01-14 20:53:00,27.6,22.0,30.16,WNW,297,0.0,6.0,79,0.00,,,0.07,0,weatherlink.com 1.10,2013-01-15 01:53:00,
2013-01-14 21:08:00,27.5,22.0,30.16,NNE,15,4.0,6.0,79,0.00,,,0.07,0,weatherlink.com 1.10,2013-01-15 02:08:00,
2013-01-14 21:23:00,27.5,22.0,30.16,SE,133,0.0,5.0,78,0.00,,,0.07,0,weatherlink.com 1.10,2013-01-15 02:23:00,
2013-01-14 21:38:00,27.4,21.0,30.16,ENE,64,0.0,7.0,78,0.00,,,0.07,0,weatherlink.com 1.10,2013-01-15 02:38:00,
2013-01-14 21:53:00,27.2,21.0,30.16,SE,136,5.0,6.0,78,0.00,,,0.07,0,weatherlink.com 1.10,2013-01-15 02:53:00,
2013-01-14 22:23:00,27.0,21.0,30.16,North,355,0.0,7.0,79,0.00,,,0.07,0,weatherlink.com 1.10,2013-01-15 03:23:00,
2013-01-14 22:38:00,27.1,21.0,30.16,NNE,18,0.0,1.0,78,0.00,,,0.07,0,weatherlink.com 1.10,2013-01-15 03:38:00,
2013-01-14 22:53:00,27.0,21.0,30.18,NNE,18,0.0,1.0,78,0.00,,,0.07,0,weatherlink.com 1.10,2013-01-15 03:53:00,
2013-01-14 23:08:00,27.0,21.0,30.18,NNW,333,0.0,7.0,77,0.00,,,0.07,0,weatherlink.com 1.10,2013-01-15 04:08:00,
2013-01-14 23:23:00,26.9,21.0,30.20,North,351,0.0,6.0,78,0.00,,,0.07,0,weatherlink.com 1.10,2013-01-15 04:23:00,
2013-01-14 23:38:00,27.0,20.0,30.21,North,351,0.0,2.0,76,0.00,,,0.07,0,weatherlink.com 1.10,2013-01-15 04:38:00,
2013-01-14 23:53:00,26.9,21.0,30.21,SSE,159,0.0,7.0,78,0.00,,,0.07,0,weatherlink.com 1.10,2013-01-15 04:53:00,